Cincinnati, OH

7:18 PM EST on December 07, 2019 (GMT -0500)
Cincinnati Municipal-Lunken

Weather History for KLUK - September, 2019

Change the Weather History Date:

Friday, September 6, 2019

  Actual Average Record
Temperature  
Mean Temperature 67 °F -  
Max Temperature 82 °F 82 °F 97 °F (1998)
Min Temperature 53 °F 60 °F 43 °F (1962)
Cooling Degree Days 2    
Growing Degree Days 17 (Base 50)    
Moisture  
Dew Point 58 °F    
Average Humidity 86    
Maximum Humidity 100    
Minimum Humidity 56    
Precipitation  
Precipitation 0.00 in - - ()
Sea Level Pressure  
Sea Level Pressure 29.97 in    
Wind  
Wind Speed 2 mph ()    
Max Wind Speed 15 mph    
Max Gust Speed 22 mph    
Visibility 6.3 miles    
Events Fog    
Averages and records for this station are not official NWS values.
T = Trace of Precipitation, MM = Missing Value Source: Averaged Metar Reports

Daily Weather History Graph

Daily Weather History Graph

Search for Another Location

Airport or City:

Astronomy

Sep. 06, 2019 Rise Set
Actual Time 7:10 AM EDT 8:00 PM EDT
Civil Twilight 6:43 AM EDT 8:27 PM EDT
Nautical Twilight 6:11 AM EDT 8:59 PM EDT
Astronomical Twilight 5:38 AM EDT 9:33 PM EDT
Moon 3:14 PM EDT (9/6) 12:20 AM EDT (9/6)
Length of Visible Light 13h 44m
Length of Day
12h 50m
First Quarter, 55% of the Moon is Illuminated
Sep 6
First Quarter
Sep 14
Full
Sep 21
Last Quarter
Sep 28
New
Oct 5
First Quarter

Hourly Weather History & Observations

Time (EDT) Temp. Heat Index Dew Point Humidity Pressure Visibility Wind Dir Wind Speed Gust Speed Precip Events Conditions
12:53 AM 59.0 °F - 57.9 °F 96% 30.03 in 10.0 mi Calm Calm - N/A   Clear
1:53 AM 57.9 °F - 57.0 °F 97% 30.02 in 10.0 mi Calm Calm - N/A   Clear
2:06 AM 57.0 °F - 57.0 °F 100% 30.02 in 1.8 mi Calm Calm - N/A   Clear
2:18 AM 57.0 °F - 57.0 °F 100% 30.02 in 5.0 mi Calm Calm - N/A   Clear
2:53 AM 57.0 °F - 57.0 °F 100% 30.02 in 8.0 mi Calm Calm - N/A   Clear
3:23 AM 55.9 °F - 55.0 °F 97% 30.02 in 1.5 mi Calm Calm - N/A   Clear
3:32 AM 55.0 °F - 55.0 °F 100% 30.02 in 0.8 mi Calm Calm - N/A   Clear
3:39 AM 55.9 °F - 55.9 °F 100% 30.02 in 1.5 mi Calm Calm - N/A   Clear
3:53 AM 55.9 °F - 55.0 °F 97% 30.00 in 1.0 mi Calm Calm - N/A   Clear
3:57 AM 55.9 °F - 55.0 °F 97% 30.00 in 4.0 mi Calm Calm - N/A   Clear
4:07 AM 53.1 °F - 53.1 °F 100% 30.00 in 0.8 mi Calm Calm - N/A   Clear
4:34 AM 54.0 °F - 54.0 °F 100% 30.00 in 2.0 mi Calm Calm - N/A   Clear
4:53 AM 55.9 °F - 55.0 °F 97% 30.00 in 10.0 mi Calm Calm - N/A   Clear
5:31 AM 55.0 °F - 55.0 °F 100% 30.00 in 1.5 mi Calm Calm - N/A   Clear
5:38 AM 55.0 °F - 55.0 °F 100% 30.00 in 0.2 mi Calm Calm - N/A Fog Fog
5:53 AM 54.0 °F - 54.0 °F 100% 29.99 in 0.2 mi Calm Calm - N/A Fog Fog
6:14 AM 54.0 °F - 53.1 °F 97% 30.00 in 1.2 mi Calm Calm - N/A   Partly Cloudy
6:16 AM 54.0 °F - 54.0 °F 100% 30.00 in 3.0 mi Calm Calm - N/A   Partly Cloudy
6:27 AM 55.0 °F - 54.0 °F 96% 29.99 in 1.5 mi Calm Calm - N/A   Partly Cloudy
6:36 AM 55.0 °F - 55.0 °F 100% 29.99 in 0.8 mi Calm Calm - N/A   Clear
6:40 AM 55.0 °F - 54.0 °F 96% 29.99 in 2.5 mi Calm Calm - N/A   Clear
6:53 AM 53.1 °F - 53.1 °F 100% 29.99 in 10.0 mi ENE 3.5 mph - N/A Fog Patches of Fog
7:53 AM 55.9 °F - 55.0 °F 97% 30.00 in 10.0 mi NE 3.5 mph - N/A   Clear
8:53 AM 61.0 °F - 57.9 °F 90% 30.00 in 10.0 mi Calm Calm - N/A   Clear
9:53 AM 64.9 °F - 60.1 °F 84% 29.99 in 10.0 mi Calm Calm - N/A   Clear
10:53 AM 70.0 °F - 59.0 °F 68% 29.97 in 10.0 mi South 5.8 mph - N/A   Clear
11:53 AM 73.9 °F - 61.0 °F 64% 29.94 in 10.0 mi Variable 6.9 mph - N/A   Clear
12:53 PM 75.9 °F - 61.0 °F 60% 29.92 in 10.0 mi South 9.2 mph - N/A   Mostly Cloudy
1:53 PM 75.9 °F - 60.1 °F 58% 29.90 in 10.0 mi SSW 9.2 mph - N/A   Overcast
2:53 PM 79.0 °F - 62.1 °F 56% 29.88 in 10.0 mi South 8.1 mph - N/A   Overcast
3:53 PM 81.0 °F 82.5 °F 64.0 °F 56% 29.86 in 10.0 mi SW 5.8 mph - N/A   Mostly Cloudy
4:53 PM 80.1 °F 81.7 °F 64.0 °F 58% 29.86 in 10.0 mi West 4.6 mph - N/A   Overcast
5:53 PM 81.0 °F 83.0 °F 66.0 °F 60% 29.86 in 10.0 mi West 6.9 mph - N/A   Scattered Clouds
6:53 PM 80.1 °F 82.3 °F 66.9 °F 64% 29.87 in 10.0 mi West 15.0 mph 21.9 mph N/A   Mostly Cloudy
7:53 PM 77.0 °F - 66.9 °F 71% 29.89 in 10.0 mi NNW 8.1 mph 17.3 mph N/A   Partly Cloudy
8:53 PM 73.9 °F - 66.0 °F 76% 29.91 in 10.0 mi NNW 8.1 mph - N/A   Scattered Clouds
9:53 PM 73.0 °F - 66.0 °F 79% 29.93 in 10.0 mi NNW 9.2 mph - N/A   Overcast
10:53 PM 72.0 °F - 64.9 °F 78% 29.94 in 10.0 mi NW 6.9 mph - N/A   Mostly Cloudy
11:53 PM 71.1 °F - 64.9 °F 81% 29.94 in 10.0 mi NW 9.2 mph - N/A   Scattered Clouds